Bismarck, ND

8:47 PM CDT on March 30, 2017 (GMT -0500)
Bismarck Municipal

Weather History for KBIS - July, 2013

Change the Weather History Date:

Sunday, July 14, 2013

  Actual Average Record
Temperature  
Mean Temperature 70 °F 71 °F  
Max Temperature 76 °F 85 °F 104 °F (1910)
Min Temperature 63 °F 58 °F 41 °F (1967)
Degree Days  
Heating Degree Days 0 0  
Month to date heating degree days 0 13  
Since 1 June heating degree days 86 106  
Since 1 July heating degree days 0 13  
Cooling Degree Days 5 7  
Month to date cooling degree days 101 81  
Year to date cooling degree days 197 181  
Since 1 June cooling degree days 185 164  
Growing Degree Days 19 (Base 50)    
Moisture  
Dew Point 59 °F    
Average Humidity 74    
Maximum Humidity 93    
Minimum Humidity 54    
Precipitation  
Precipitation 0.00 in 0.10 in 1.72 in (1892)
Month to date precipitation 0.39 1.40  
Year to date precipitation 13.70 10.04  
Snow  
Snow 0.00 in 0.00 in 0.00 in (2002)
Month to date snowfall 0.0 0.0  
Since 1 June snowfall 0.0 0.0  
Since 1 July snowfall 0.0 0.0  
Snow Depth 0.00 in    
Sea Level Pressure  
Sea Level Pressure 30.13 in    
Wind  
Wind Speed 11 mph (NNE)    
Max Wind Speed 20 mph    
Max Gust Speed 26 mph    
Visibility 10 miles    
Events      
T = Trace of Precipitation, MM = Missing Value Source: NWS Daily Summary

Daily Weather History Graph

Daily Weather History Graph

Search for Another Location

Airport or City:

Trip Planner

Search our weather history database for the weather conditions in past years. The results will help you decide how hot, cold, wet, or windy it might be!

Date:

Astronomy

Jul. 14, 2013 Rise Set
Actual Time 6:03 AM CDT 9:33 PM CDT
Civil Twilight 5:25 AM CDT 10:11 PM CDT
Nautical Twilight 4:35 AM CDT 11:01 PM CDT
Astronomical Twilight 3:28 AM CDT 12:07 AM CDT
Moon 12:49 PM CDT (7/14) No Moon Set
Length of Visible Light 16h 46m
Length of Day
15h 30m
Waxing Crescent, 35% of the Moon is Illuminated
Jul 14
Waxing Crescent
Jul 15
First Quarter
Jul 22
Full
Jul 29
Last Quarter
Aug 6
New

Hourly Weather History & Observations

Time (CDT) Temp. Dew Point Humidity Pressure Visibility Wind Dir Wind Speed Gust Speed Precip Events Conditions
12:52 AM 72.0 °F 61.0 °F 68% 30.00 in 10.0 mi West 3.5 mph - 0.00 in   Clear
1:52 AM 71.1 °F 61.0 °F 70% 30.00 in 10.0 mi NNW 8.1 mph - N/A   Clear
2:52 AM 69.1 °F 62.1 °F 78% 30.03 in 10.0 mi Calm Calm - N/A   Clear
3:52 AM 68.0 °F 63.0 °F 84% 30.03 in 10.0 mi NNW 12.7 mph 20.7 mph N/A   Clear
4:52 AM 66.9 °F 63.0 °F 87% 30.04 in 10.0 mi North 12.7 mph 21.9 mph N/A   Clear
5:09 AM 66.9 °F 63.0 °F 87% 30.08 in 10.0 mi North 15.0 mph 23.0 mph N/A   Mostly Cloudy
5:30 AM 66.0 °F 62.1 °F 87% 30.09 in 10.0 mi North 10.4 mph 24.2 mph N/A   Overcast
5:52 AM 64.9 °F 62.1 °F 90% 30.08 in 10.0 mi North 6.9 mph 17.3 mph N/A   Overcast
6:40 AM 64.9 °F 61.0 °F 87% 30.11 in 10.0 mi North 10.4 mph - N/A   Overcast
6:52 AM 64.9 °F 60.1 °F 84% 30.09 in 10.0 mi NNW 10.4 mph - N/A   Overcast
7:31 AM 63.0 °F 59.0 °F 87% 30.14 in 10.0 mi NNW 11.5 mph - N/A   Overcast
7:52 AM 63.0 °F 57.9 °F 84% 30.13 in 10.0 mi North 10.4 mph 19.6 mph N/A   Overcast
8:52 AM 63.0 °F 57.9 °F 84% 30.17 in 10.0 mi North 18.4 mph 24.2 mph N/A   Overcast
9:52 AM 64.0 °F 57.0 °F 78% 30.18 in 10.0 mi NNE 18.4 mph - N/A   Overcast
10:36 AM 64.9 °F 57.0 °F 75% 30.21 in 10.0 mi NNE 15.0 mph - N/A   Overcast
10:52 AM 66.0 °F 57.0 °F 73% 30.19 in 10.0 mi NNE 15.0 mph - N/A   Overcast
11:52 AM 68.0 °F 57.0 °F 68% 30.18 in 10.0 mi NNE 17.3 mph - N/A   Mostly Cloudy
12:52 PM 70.0 °F 57.0 °F 63% 30.18 in 10.0 mi NE 10.4 mph - N/A   Mostly Cloudy
1:52 PM 70.0 °F 57.0 °F 63% 30.19 in 10.0 mi NE 11.5 mph - N/A   Mostly Cloudy
2:52 PM 73.9 °F 59.0 °F 59% 30.18 in 10.0 mi NE 17.3 mph - N/A   Scattered Clouds
3:52 PM 75.0 °F 57.9 °F 55% 30.18 in 10.0 mi NE 12.7 mph - N/A   Overcast
4:52 PM 73.9 °F 57.9 °F 57% 30.20 in 10.0 mi NNE 10.4 mph - N/A   Overcast
5:52 PM 73.0 °F 57.9 °F 59% 30.21 in 10.0 mi NNE 8.1 mph - N/A   Mostly Cloudy
6:52 PM 72.0 °F 57.9 °F 61% 30.18 in 10.0 mi NE 11.5 mph - N/A   Clear
7:52 PM 72.0 °F 59.0 °F 64% 30.16 in 10.0 mi ENE 10.4 mph - N/A   Clear
8:52 PM 71.1 °F 59.0 °F 66% 30.15 in 10.0 mi East 11.5 mph - N/A   Clear
9:52 PM 70.0 °F 59.0 °F 68% 30.18 in 10.0 mi NNE 6.9 mph - N/A   Clear
10:52 PM 68.0 °F 59.0 °F 73% 30.19 in 10.0 mi ENE 8.1 mph - N/A   Clear
11:52 PM 64.9 °F 59.0 °F 81% 30.19 in 10.0 mi NE 4.6 mph - N/A   Scattered Clouds